Location: *
(37.5724°S, 58.0067°E)
Time: 20:35:28
(UTC+00:00)

USA 215 - Pass Details

Date: 26 September 2020
Orbit: 1102 x 1106 km, 123.0° (Epoch: 23 October)

Event Time Altitude Azimuth Distance (km) Brightness Sun altitude
Exits shadow 15:30:40 22° 51° (NE) 2,222 4.3 -16.9°
Drops below altitude 10° 15:35:00 10° 9° (N) 2,955 5.3 -17.8°
Sets 15:38:07 0° 354° (N) 3,904 6.0 -18.3°
